SCP
0 0 0 0 0 0 0 0 0 0 0 0 0 0 0 0 0 0 0 0 0 0 0 0 0 0 0 0 0 0 0 0 0 0 0 0 0 0 0 0 -0 -0 -0
0 0 0 0 0 0 0 0 0 0 0 0 0 0 0 0 0 0 0 0 0 0 0 0 0 0 0 0 0 0 0 0 0 0 0 0 0 0 0 0 0 -0 -0
0 0 0 0 0 0 0 0 0 0 0 0 0 0 0 0 0 0 0 0 0 0 0 0 0 0 0 0 0 0 0 0 0 0 0 0 0 0 0 0 0 0 -0
0 0 0 0 0 0 0 0 0 0 0 0 0 0 0 0 0 0 0 0 0 0 0 0 0 0 0 0 0 0 0 0 0 0 0 0 0 0 0 0 0 0 0
0 0 0 0 0 0 0 0 0 0 0 0 0 0 0 0 0 0 0 0 0 0 0 0 0 0 0 0 0 0 0 0 0 0 0 0 0 0 0 0 0 0 0
0 0 0 0 0 0 0 0 0 0 0 0 0 0 0 0 0 0 0 0 0 0 0 0 0 0 0 0 0 0 0 0 0 0 0 0 0 0 0 0 0 0 0
0 0 0 0 0 0 0 0 0 0 0 0 0 0 0 0 0 0 0 0 0 0 0 0 0 0 0 0 0 0 0 0 0 0 0 0 0 0 0 0 0 0 0
0 0 0 0 0 0 0 0 0 0 0 0 0 0 0 0 0 0 0 0 0 0 0 0 0 0 0 0 0 0 0 0 0 0 0 0 0 0 0 0 0 0 0
0 0 0 0 0 0 0 0 0 0 0 0 0 0 0 0 0 0 0 0 0 0 0 0 0 0 0 0 0 0 0 0 0 0 0 0 0 0 0 0 0 0 0
0 0 0 0 0 0 0 0 0 0 0 0 0 0 0 0 0 0 0 0 0 0 0 0 0 0 0 0 0 0 0 0 0 0 0 0 0 0 0 0 0 0 0
0 0 0 0 0 0 0 0 0 0 0 0 0 0 0 0 0 0 0 0 0 0 0 0 0 0 0 0 0 0 0 0 0 0 0 0 0 0 0 0 0 0 0
0 0 0 0 0 0 0 0 0 0 0 0 0 0 0 0 0 0 0 0 0 0 0 0 0 0 0 0 0 0 0 0 0 0 0 0 0 0 0 0 0 0 0
0 0 0 0 0 0 0 0 0 0 0 0 0 0 0 0 0 0 0 0 0 0 0 0 0 0 0 0 0 0 0 0 0 0 0 0 0 0 0 0 0 0 0
0 0 0 0 0 0 0 0 0 0 0 0 0 0 0 0 0 0 0 0 0 0 0 0 0 0 0 0 0 0 0 0 0 0 0 0 0 0 0 0 0 0 0
0 0 0 0 0 0 0 0 0 0 0 0 0 0 0 0 0 0 0 0 0 0 0 0 0 0 0 0 0 0 0 0 0 0 0 0 0 0 0 0 0 0 0
0 0 0 0 0 0 0 0 0 0 0 0 0 0 0 0 0 0 0 0 0 0 0 0 0 0 0 0 0 0 0 0 0 0 0 0 0 0 0 0 0 0 0
0 0 0 0 0 0 0 0 0 0 0 0 0 0 0 0 0 0 0 0 0 0 0 0 0 0 0 0 0 0 0 0 0 0 0 0 0 0 0 0 0 0 0
0 0 0 0 0 0 0 0 0 0 0 0 0 0 0 0 0 0 0 0 0 0 0 0 0 0 0 0 0 0 0 0 0 0 0 0 0 0 0 0 0 0 0
0 0 0 0 0 0 0 0 0 0 0 0 0 0 0 0 0 0 0 0 0 0 0 0 0 0 0 0 0 0 0 0 0 0 0 0 0 0 0 0 0 0 0
0 0 0 0 0 0 0 0 0 0 0 0 0 0 0 0 0 0 0 0 0 0 0 0 0 0 0 0 0 0 0 0 0 0 0 0 0 0 0 0 0 0 0
0 0 0 0 0 0 0 0 0 0 0 0 0 0 0 0 0 0 0 0 0 0 0 0 0 0 0 0 0 0 0 0 0 0 0 0 0 0 0 0 0 0 0
0 0 0 0 0 0 0 0 0 0 0 0 0 0 0 0 0 0 0 0 0 0 0 0 0 0 0 0 0 0 0 0 0 0 0 0 0 0 0 0 0 0 0
0 0 0 0 0 0 0 0 0 0 0 0 0 0 0 0 0 0 0 0 0 0 0 0 0 0 0 0 0 0 0 0 0 0 0 0 0 0 0 0 0 0 0
0 0 0 0 0 0 0 0 0 0 0 0 0 0 0 0 0 0 0 0 0 0 0 0 0 0 0 0 0 0 0 0 0 0 0 0 0 0 0 0 0 0 0
0 0 0 0 0 0 0 0 0 0 0 0 0 0 0 0 0 0 0 0 0 0 0 0 0 0 0 0 0 0 0 0 0 0 0 0 0 0 0 0 0 0 0
0 0 0 0 0 0 0 0 0 0 0 0 0 0 0 0 0 0 0 0 0 0 0 0 0 0 0 0 0 0 0 0 0 0 0 0 0 0 0 0 0 0 0
Wind_Speed_500mb
64 63 63 63 64 64 64 62 60 59 60 57 52 52 46 42 40 38 39 42 40 34 27 24 27 23 19 18 20 23 23 22 23 31 30 31 33 40 47 54 61 66 70
54 56 57 58 60 61 62 62 56 51 51 52 50 50 42 42 38 40 38 45 32 26 28 28 26 18 17 20 23 23 24 26 25 22 23 28 36 45 53 58 63 67 71
48 50 51 54 57 58 56 51 46 45 48 45 47 39 40 41 40 38 34 33 29 29 28 24 19 18 20 22 23 24 25 24 23 19 20 25 34 43 49 56 61 66 69
42 42 44 44 44 44 45 43 43 44 45 49 38 39 38 38 38 38 37 35 33 29 24 21 21 21 21 23 25 26 23 21 17 19 23 28 35 42 49 57 65 67 71
35 36 36 35 35 38 39 41 47 45 49 40 39 38 39 39 38 38 38 34 30 26 24 22 22 23 25 27 26 23 20 17 17 21 24 29 36 44 51 56 62 71 75
36 37 35 35 36 35 37 46 44 53 48 44 41 40 43 43 41 39 34 31 29 25 23 23 26 28 27 24 23 21 18 17 19 23 27 33 37 42 49 54 59 68 74
36 34 33 33 36 41 45 47 49 50 47 47 42 45 43 43 40 36 32 28 24 23 24 27 26 26 25 23 21 19 18 18 22 26 29 32 38 41 48 54 55 60 65
37 36 37 37 38 42 47 49 49 49 50 46 44 44 42 39 37 34 30 26 25 26 25 24 24 24 24 20 20 19 19 20 25 28 30 33 36 40 44 51 55 61 66
41 40 40 40 43 44 46 49 50 49 46 46 42 42 41 40 37 33 29 27 26 24 23 24 24 25 23 21 22 22 23 26 30 33 35 35 37 37 41 50 55 60 66
45 43 42 41 43 44 45 46 46 46 46 44 44 44 43 39 37 32 27 25 25 25 24 24 24 24 23 24 24 26 30 32 35 37 35 35 37 39 40 44 49 54 52
43 43 43 42 45 44 43 48 46 45 46 47 47 46 44 41 37 30 26 25 25 26 25 25 25 25 24 25 28 31 34 36 38 38 37 38 40 41 39 40 40 44 49
44 42 44 46 47 47 46 45 45 47 48 48 48 47 46 44 37 30 26 26 27 28 28 28 28 27 27 29 32 34 36 40 37 36 38 39 40 40 42 44 42 43 42
40 41 43 43 45 45 46 48 50 51 51 50 51 52 50 44 37 32 30 30 31 32 30 31 33 32 32 34 36 38 39 37 36 37 37 37 39 41 42 45 42 43 41
36 37 38 42 45 46 46 48 50 53 55 56 56 52 48 44 38 34 35 37 35 33 35 36 37 37 37 39 41 40 38 37 38 38 37 37 38 39 40 42 44 45 46
31 33 37 39 42 45 47 50 52 52 51 52 51 49 47 42 37 36 39 39 37 37 38 39 41 43 45 44 42 40 39 40 40 39 38 36 37 38 38 40 41 42 42
27 33 37 39 42 45 47 51 54 55 56 55 54 52 48 43 42 45 44 42 42 45 44 47 49 51 49 47 45 44 43 43 42 41 40 38 36 37 37 36 38 38 40
24 28 32 37 42 45 49 53 55 57 59 58 57 52 48 44 48 49 48 46 49 52 53 53 55 54 51 50 49 49 48 46 44 41 40 38 37 36 36 35 37 40 40
23 27 32 35 39 44 47 50 53 56 56 57 58 53 50 52 53 54 56 55 61 62 57 56 55 54 55 55 54 53 50 48 47 44 43 40 38 36 34 35 35 36 38
24 28 31 36 40 42 45 49 53 57 60 60 57 57 57 60 62 58 60 64 63 61 58 57 57 58 58 57 56 54 52 51 50 48 45 42 40 37 34 32 32 32 33
25 28 31 35 39 44 48 52 56 59 60 63 62 61 64 63 65 64 63 63 59 60 61 61 59 59 60 59 59 56 54 53 53 50 46 45 42 38 34 32 30 28 29
22 27 31 35 40 44 47 52 56 60 62 64 67 75 63 69 69 69 72 71 69 72 68 67 68 66 64 63 60 59 57 55 54 51 50 45 43 41 35 33 30 30 30
28 29 33 37 41 46 51 55 59 64 66 70 73 78 66 73 74 78 79 81 77 74 71 74 74 71 67 65 63 61 60 57 56 54 53 48 46 43 39 37 35 35 35
32 35 38 42 46 50 55 59 64 68 70 74 78 79 74 75 77 84 87 80 78 79 75 75 75 71 68 66 65 64 64 59 52 55 56 51 50 46 43 43 42 41 41
36 38 42 46 50 55 60 64 68 72 76 79 81 81 80 79 80 82 80 78 81 80 76 75 73 73 69 65 68 68 67 59 56 55 56 55 53 49 49 50 48 48 46
47 48 50 52 55 58 62 66 69 74 76 78 80 82 81 80 80 79 79 79 76 77 76 74 75 72 73 70 69 67 67 63 61 59 57 58 56 52 53 55 52 52 51
57 59 60 60 62 63 65 68 71 73 73 74 74 74 74 73 73 73 72 73 74 74 72 71 70 71 69 67 64 62 63 63 63 60 56 59 59 56 56 58 56 57 56
Wind_Direction_500mb
223 226 229 232 234 236 239 241 242 239 229 223 223 236 232 243 239 235 241 249 234 225 240 241 248 241 249 267 280 286 293 302 304 309 317 327 338 347 351 354 356 357 357
222 225 230 233 237 240 243 243 239 229 217 217 218 227 230 236 236 242 241 223 217 228 227 236 236 241 257 269 276 283 296 305 308 315 322 332 344 348 350 350 351 354 353
228 228 231 235 238 238 236 230 222 205 211 207 213 220 229 234 234 227 214 229 224 224 225 223 233 247 256 266 281 291 299 304 306 312 321 334 342 345 344 345 346 347 349
234 233 230 228 227 224 216 207 197 201 209 205 215 229 225 222 220 222 223 220 217 215 214 223 234 245 263 275 281 289 288 288 293 305 321 334 341 343 342 341 340 342 343
226 227 224 219 211 207 197 193 194 199 202 219 224 229 216 215 216 217 212 205 205 212 219 231 244 263 269 275 277 273 271 273 293 311 320 333 338 338 339 337 335 335 337
217 216 215 211 203 198 194 193 203 202 207 217 222 219 209 211 206 201 202 204 208 216 229 244 261 269 271 267 262 261 266 284 300 313 323 329 332 331 331 332 332 332 335
220 216 214 213 207 199 196 199 202 206 212 215 217 209 206 203 198 199 204 211 218 231 248 258 264 267 267 264 264 264 275 290 300 308 316 323 323 324 322 324 328 326 323
225 222 216 211 210 204 201 202 205 210 213 222 210 204 201 200 201 203 209 217 230 244 253 262 266 265 263 263 264 269 279 290 294 302 309 309 309 314 315 315 319 317 317
227 227 222 216 213 211 211 210 211 213 213 208 205 205 204 205 205 205 213 229 243 252 255 256 260 263 265 263 266 274 283 289 295 306 308 307 309 309 307 308 312 314 316
227 226 224 220 218 216 215 216 215 212 209 204 203 204 208 205 206 210 227 239 248 250 255 258 260 265 266 268 275 284 291 296 303 305 305 308 312 310 306 303 307 309 311
224 221 220 218 217 215 215 214 211 207 207 209 208 209 209 208 209 223 232 238 246 253 257 260 263 258 262 270 278 287 293 299 302 303 307 310 311 312 312 310 309 306 307
222 220 219 215 213 210 209 212 211 212 213 214 214 214 214 214 220 230 233 240 249 254 257 257 256 256 261 270 279 287 292 294 296 301 306 310 311 315 317 318 319 312 311
223 221 219 218 215 214 214 215 216 216 218 220 220 219 217 219 229 229 236 245 248 250 253 253 255 259 265 272 279 284 288 290 295 299 301 304 308 314 317 318 319 315 316
223 223 223 222 221 218 218 220 223 224 223 222 222 221 221 227 231 238 246 246 247 248 250 252 255 261 265 271 276 281 284 287 291 293 296 302 308 315 318 318 319 321 321
222 224 225 225 227 227 227 228 229 229 231 234 231 229 232 236 244 248 248 249 252 252 253 253 256 259 263 266 271 276 279 283 285 287 291 299 306 311 315 317 319 323 325
228 229 230 231 231 231 231 232 231 230 230 230 228 229 235 238 245 246 248 250 253 255 255 255 257 259 261 266 271 273 275 277 278 281 285 293 301 307 312 316 318 320 322
232 235 238 238 238 238 238 237 237 236 235 234 233 237 238 250 251 251 252 254 256 258 256 256 258 261 264 267 270 270 270 271 272 274 279 286 293 299 307 313 317 319 321
247 243 243 245 246 247 246 246 245 244 243 241 238 243 248 253 253 253 254 255 256 257 259 260 261 263 266 267 269 271 271 272 272 274 277 281 287 293 300 305 310 314 317
250 249 249 249 248 249 250 250 248 246 245 244 243 248 254 253 252 249 252 255 259 263 264 263 263 265 266 269 270 272 272 273 271 271 272 276 280 286 292 297 303 309 313
260 260 259 257 256 255 254 253 253 253 253 252 251 268 263 259 258 257 257 258 267 270 266 266 266 267 269 271 272 272 271 269 269 270 271 273 276 279 282 285 291 298 305
268 262 260 260 261 261 261 261 260 258 258 256 258 269 274 262 260 258 259 258 264 265 266 267 267 268 269 271 270 270 269 268 267 268 269 271 272 273 274 278 282 288 295
300 288 278 272 267 264 263 262 261 261 260 259 260 265 265 265 263 263 260 262 263 263 264 266 266 268 268 269 269 268 267 265 265 266 268 267 266 266 268 271 276 280 286
300 295 290 284 278 273 270 268 268 267 269 266 270 276 272 267 267 265 265 265 267 267 263 265 268 270 270 269 269 268 266 265 264 262 263 263 262 263 264 267 272 276 281
303 299 294 288 283 280 277 274 272 269 269 269 270 271 271 271 270 270 268 269 272 273 272 267 269 270 267 265 265 264 264 262 260 259 260 260 260 260 262 267 270 274 279
301 298 295 292 289 286 283 281 278 277 275 274 273 272 272 270 269 267 268 270 270 268 266 265 266 264 264 263 261 258 258 257 257 257 256 258 260 259 262 266 270 274 277
292 291 290 290 289 287 286 284 283 281 279 278 277 275 275 274 272 271 271 270 271 270 269 267 267 267 268 268 266 264 262 260 258 258 258 259 260 261 263 266 269 272 274
Wind_Speed_850mb
64 63 63 63 64 64 64 62 60 59 60 57 52 52 46 42 40 38 39 42 40 34 27 24 27 23 19 18 20 23 23 22 23 31 30 31 33 40 47 54 61 66 70
54 56 57 58 60 61 62 62 56 51 51 52 50 50 42 42 38 40 38 45 32 26 28 28 26 18 17 20 23 23 24 26 25 22 23 28 36 45 53 58 63 67 71
48 50 51 54 57 58 56 51 46 45 48 45 47 39 40 41 40 38 34 33 29 29 28 24 19 18 20 22 23 24 25 24 23 19 20 25 34 43 49 56 61 66 69
42 42 44 44 44 44 45 43 43 44 45 49 38 39 38 38 38 38 37 35 33 29 24 21 21 21 21 23 25 26 23 21 17 19 23 28 35 42 49 57 65 67 71
35 36 36 35 35 38 39 41 47 45 49 40 39 38 39 39 38 38 38 34 30 26 24 22 22 23 25 27 26 23 20 17 17 21 24 29 36 44 51 56 62 71 75
36 37 35 35 36 35 37 46 44 53 48 44 41 40 43 43 41 39 34 31 29 25 23 23 26 28 27 24 23 21 18 17 19 23 27 33 37 42 49 54 59 68 74
36 34 33 33 36 41 45 47 49 50 47 47 42 45 43 43 40 36 32 28 24 23 24 27 26 26 25 23 21 19 18 18 22 26 29 32 38 41 48 54 55 60 65
37 36 37 37 38 42 47 49 49 49 50 46 44 44 42 39 37 34 30 26 25 26 25 24 24 24 24 20 20 19 19 20 25 28 30 33 36 40 44 51 55 61 66
41 40 40 40 43 44 46 49 50 49 46 46 42 42 41 40 37 33 29 27 26 24 23 24 24 25 23 21 22 22 23 26 30 33 35 35 37 37 41 50 55 60 66
45 43 42 41 43 44 45 46 46 46 46 44 44 44 43 39 37 32 27 25 25 25 24 24 24 24 23 24 24 26 30 32 35 37 35 35 37 39 40 44 49 54 52
43 43 43 42 45 44 43 48 46 45 46 47 47 46 44 41 37 30 26 25 25 26 25 25 25 25 24 25 28 31 34 36 38 38 37 38 40 41 39 40 40 44 49
44 42 44 46 47 47 46 45 45 47 48 48 48 47 46 44 37 30 26 26 27 28 28 28 28 27 27 29 32 34 36 40 37 36 38 39 40 40 42 44 42 43 42
40 41 43 43 45 45 46 48 50 51 51 50 51 52 50 44 37 32 30 30 31 32 30 31 33 32 32 34 36 38 39 37 36 37 37 37 39 41 42 45 42 43 41
36 37 38 42 45 46 46 48 50 53 55 56 56 52 48 44 38 34 35 37 35 33 35 36 37 37 37 39 41 40 38 37 38 38 37 37 38 39 40 42 44 45 46
31 33 37 39 42 45 47 50 52 52 51 52 51 49 47 42 37 36 39 39 37 37 38 39 41 43 45 44 42 40 39 40 40 39 38 36 37 38 38 40 41 42 42
27 33 37 39 42 45 47 51 54 55 56 55 54 52 48 43 42 45 44 42 42 45 44 47 49 51 49 47 45 44 43 43 42 41 40 38 36 37 37 36 38 38 40
24 28 32 37 42 45 49 53 55 57 59 58 57 52 48 44 48 49 48 46 49 52 53 53 55 54 51 50 49 49 48 46 44 41 40 38 37 36 36 35 37 40 40
23 27 32 35 39 44 47 50 53 56 56 57 58 53 50 52 53 54 56 55 61 62 57 56 55 54 55 55 54 53 50 48 47 44 43 40 38 36 34 35 35 36 38
24 28 31 36 40 42 45 49 53 57 60 60 57 57 57 60 62 58 60 64 63 61 58 57 57 58 58 57 56 54 52 51 50 48 45 42 40 37 34 32 32 32 33
25 28 31 35 39 44 48 52 56 59 60 63 62 61 64 63 65 64 63 63 59 60 61 61 59 59 60 59 59 56 54 53 53 50 46 45 42 38 34 32 30 28 29
22 27 31 35 40 44 47 52 56 60 62 64 67 75 63 69 69 69 72 71 69 72 68 67 68 66 64 63 60 59 57 55 54 51 50 45 43 41 35 33 30 30 30
28 29 33 37 41 46 51 55 59 64 66 70 73 78 66 73 74 78 79 81 77 74 71 74 74 71 67 65 63 61 60 57 56 54 53 48 46 43 39 37 35 35 35
32 35 38 42 46 50 55 59 64 68 70 74 78 79 74 75 77 84 87 80 78 79 75 75 75 71 68 66 65 64 64 59 52 55 56 51 50 46 43 43 42 41 41
36 38 42 46 50 55 60 64 68 72 76 79 81 81 80 79 80 82 80 78 81 80 76 75 73 73 69 65 68 68 67 59 56 55 56 55 53 49 49 50 48 48 46
47 48 50 52 55 58 62 66 69 74 76 78 80 82 81 80 80 79 79 79 76 77 76 74 75 72 73 70 69 67 67 63 61 59 57 58 56 52 53 55 52 52 51
57 59 60 60 62 63 65 68 71 73 73 74 74 74 74 73 73 73 72 73 74 74 72 71 70 71 69 67 64 62 63 63 63 60 56 59 59 56 56 58 56 57 56
Wind_Direction_850mb
223 226 229 232 234 236 239 241 242 239 229 223 223 236 232 243 239 235 241 249 234 225 240 241 248 241 249 267 280 286 293 302 304 309 317 327 338 347 351 354 356 357 357
222 225 230 233 237 240 243 243 239 229 217 217 218 227 230 236 236 242 241 223 217 228 227 236 236 241 257 269 276 283 296 305 308 315 322 332 344 348 350 350 351 354 353
228 228 231 235 238 238 236 230 222 205 211 207 213 220 229 234 234 227 214 229 224 224 225 223 233 247 256 266 281 291 299 304 306 312 321 334 342 345 344 345 346 347 349
234 233 230 228 227 224 216 207 197 201 209 205 215 229 225 222 220 222 223 220 217 215 214 223 234 245 263 275 281 289 288 288 293 305 321 334 341 343 342 341 340 342 343
226 227 224 219 211 207 197 193 194 199 202 219 224 229 216 215 216 217 212 205 205 212 219 231 244 263 269 275 277 273 271 273 293 311 320 333 338 338 339 337 335 335 337
217 216 215 211 203 198 194 193 203 202 207 217 222 219 209 211 206 201 202 204 208 216 229 244 261 269 271 267 262 261 266 284 300 313 323 329 332 331 331 332 332 332 335
220 216 214 213 207 199 196 199 202 206 212 215 217 209 206 203 198 199 204 211 218 231 248 258 264 267 267 264 264 264 275 290 300 308 316 323 323 324 322 324 328 326 323
225 222 216 211 210 204 201 202 205 210 213 222 210 204 201 200 201 203 209 217 230 244 253 262 266 265 263 263 264 269 279 290 294 302 309 309 309 314 315 315 319 317 317
227 227 222 216 213 211 211 210 211 213 213 208 205 205 204 205 205 205 213 229 243 252 255 256 260 263 265 263 266 274 283 289 295 306 308 307 309 309 307 308 312 314 316
227 226 224 220 218 216 215 216 215 212 209 204 203 204 208 205 206 210 227 239 248 250 255 258 260 265 266 268 275 284 291 296 303 305 305 308 312 310 306 303 307 309 311
224 221 220 218 217 215 215 214 211 207 207 209 208 209 209 208 209 223 232 238 246 253 257 260 263 258 262 270 278 287 293 299 302 303 307 310 311 312 312 310 309 306 307
222 220 219 215 213 210 209 212 211 212 213 214 214 214 214 214 220 230 233 240 249 254 257 257 256 256 261 270 279 287 292 294 296 301 306 310 311 315 317 318 319 312 311
223 221 219 218 215 214 214 215 216 216 218 220 220 219 217 219 229 229 236 245 248 250 253 253 255 259 265 272 279 284 288 290 295 299 301 304 308 314 317 318 319 315 316
223 223 223 222 221 218 218 220 223 224 223 222 222 221 221 227 231 238 246 246 247 248 250 252 255 261 265 271 276 281 284 287 291 293 296 302 308 315 318 318 319 321 321
222 224 225 225 227 227 227 228 229 229 231 234 231 229 232 236 244 248 248 249 252 252 253 253 256 259 263 266 271 276 279 283 285 287 291 299 306 311 315 317 319 323 325
228 229 230 231 231 231 231 232 231 230 230 230 228 229 235 238 245 246 248 250 253 255 255 255 257 259 261 266 271 273 275 277 278 281 285 293 301 307 312 316 318 320 322
232 235 238 238 238 238 238 237 237 236 235 234 233 237 238 250 251 251 252 254 256 258 256 256 258 261 264 267 270 270 270 271 272 274 279 286 293 299 307 313 317 319 321
247 243 243 245 246 247 246 246 245 244 243 241 238 243 248 253 253 253 254 255 256 257 259 260 261 263 266 267 269 271 271 272 272 274 277 281 287 293 300 305 310 314 317
250 249 249 249 248 249 250 250 248 246 245 244 243 248 254 253 252 249 252 255 259 263 264 263 263 265 266 269 270 272 272 273 271 271 272 276 280 286 292 297 303 309 313
260 260 259 257 256 255 254 253 253 253 253 252 251 268 263 259 258 257 257 258 267 270 266 266 266 267 269 271 272 272 271 269 269 270 271 273 276 279 282 285 291 298 305
268 262 260 260 261 261 261 261 260 258 258 256 258 269 274 262 260 258 259 258 264 265 266 267 267 268 269 271 270 270 269 268 267 268 269 271 272 273 274 278 282 288 295
300 288 278 272 267 264 263 262 261 261 260 259 260 265 265 265 263 263 260 262 263 263 264 266 266 268 268 269 269 268 267 265 265 266 268 267 266 266 268 271 276 280 286
300 295 290 284 278 273 270 268 268 267 269 266 270 276 272 267 267 265 265 265 267 267 263 265 268 270 270 269 269 268 266 265 264 262 263 263 262 263 264 267 272 276 281
303 299 294 288 283 280 277 274 272 269 269 269 270 271 271 271 270 270 268 269 272 273 272 267 269 270 267 265 265 264 264 262 260 259 260 260 260 260 262 267 270 274 279
301 298 295 292 289 286 283 281 278 277 275 274 273 272 272 270 269 267 268 270 270 268 266 265 266 264 264 263 261 258 258 257 257 257 256 258 260 259 262 266 270 274 277
292 291 290 290 289 287 286 284 283 281 279 278 277 275 275 274 272 271 271 270 271 270 269 267 267 267 268 268 266 264 262 260 258 258 258 259 260 261 263 266 269 272 274